Content
SEND FEEDBACK

Daily
Averages
Monthly
Summary
United Kingdom

CRANBROOK, ENGLAND


Home > Europe > United Kingdom > England
Elevation: 305 feet     Latitude: 51 16N     Longitude: 000 24E

WEATHER
 
SELECT A DAY
Number of Records: 140,298;   Date Range: 7/1/96 - 8/28/14
 
SHARE

PRINT THIS DATA

[ ← Previous Day ]
WEATHER ALMANAC - SEPTEMBER 8, 2013
[ Next Day → ]
[ °C ]   °F
Weather ElementAverageHighLow
Temperature55.6 °F59 °F (9:50 am)50 °F (4:50 pm)
Dewpoint46.3 °F50 °F (1:20 pm)42.8 °F (12:50 pm)
Humidity72.3 %94 % (6:50 pm)55 % (12:50 pm)
Barometer30.06 in30.09 in (3:20 pm)30.06 in (9:20 am)
Wind Speed9.3 mph12.7 mph (3:20 pm)
Weather ElementAverage
Visibility6.1 mi
Wind DirectionSSW (213.3 °)

Weather ElementTotal
Precipitation---
Heating Degree Days10.5 (Base 65)
Growing Degree Days4.5 (Base 50)
Averaged from 21 records on September 8, 2013
WEATHER CONDITIONS BREAKOUT
WIND DIRECTION BREAKOUT
WEATHER BY HOUR - SEPTEMBER 8, 2013
[ °C ]   °F
Local TimeTemperatureDewpointHumidityBarometerVisibilityWind DirectionWind SpeedGust SpeedPrecipitationEventsConditions
9:20 AM57.2 °F46.4 °F67 %30.06 inSW (220°)5.8 mphClear
9:50 AM59.0 °F48.2 °F67 %30.06 in6.2 miSW (220°)8.1 mphPartly Cloudy
10:20 AM59.0 °F44.6 °F59 %30.06 in6.2 miSW (220°)8.1 mphScattered Clouds
10:50 AM59.0 °F46.4 °F63 %30.06 in6.2 miSW (220°)8.1 mphScattered Clouds
11:20 AM59.0 °F44.6 °F59 %30.06 in6.2 miSW (230°)10.4 mphScattered Clouds
11:50 AM59.0 °F44.6 °F59 %30.06 in6.2 miSW (220°)10.4 mphScattered Clouds
12:20 PM59.0 °F44.6 °F59 %30.06 in6.2 miSW (220°)10.4 mphScattered Clouds
12:50 PM59.0 °F42.8 °F55 %30.06 in6.2 miSW (220°)10.4 mphRainLight Rain Showers
1:20 PM55.4 °F50.0 °F82 %30.06 in6.2 miSW (230°)8.1 mphScattered Clouds
1:50 PM57.2 °F48.2 °F72 %30.06 in6.2 miSW (230°)11.5 mphScattered Clouds
2:20 PM59.0 °F42.8 °F55 %30.06 in6.2 miSW (230°)11.5 mphScattered Clouds
2:50 PM59.0 °F44.6 °F59 %30.06 in6.2 miSW (230°)9.2 mphScattered Clouds
3:20 PM53.6 °F46.4 °F77 %30.09 in6.2 miSSW (200°)12.7 mphRainRain Showers
3:50 PM53.6 °F48.2 °F82 %30.09 in6.2 miSSW (200°)10.4 mphScattered Clouds
4:20 PM51.8 °F46.4 °F82 %30.09 in5.6 miSW (220°)11.5 mphRainLight Rain Showers
4:50 PM50.0 °F44.6 °F82 %30.06 in5.6 miSSW (200°)9.2 mphRainLight Rain Showers
5:20 PM51.8 °F48.2 °F88 %30.06 in6.2 miSouth (190°)9.2 mphScattered Clouds
5:50 PM53.6 °F48.2 °F82 %30.06 in6.2 miSouth (190°)9.2 mphScattered Clouds
6:20 PM51.8 °F46.4 °F82 %30.06 in6.2 miSouth (190°)6.9 mphScattered Clouds
6:50 PM50.0 °F48.2 °F94 %30.06 in6.2 miSSW (200°)6.9 mphPartly Cloudy
7:20 PM50.0 °F48.2 °F94 %30.06 in6.2 miSSW (200°)6.9 mphPartly Cloudy
Hourly data recorded from EGKB, located miles away from Cranbrook, England







STORIES FROM OUR PARTNERS